Weather History for San Antonio, TX

Change the Weather History Date:

Wednesday, January 15, 2014

  Actual Average Record
Temperature  
Mean Temperature 53 °F 52 °F  
Max Temperature 66 °F 63 °F 81 °F (1894)
Min Temperature 40 °F 41 °F 11 °F (1888)
Degree Days  
Heating Degree Days 12 14  
Month to date heating degree days 204 210  
Since 1 July heating degree days 844 812  
Cooling Degree Days 0 0  
Month to date cooling degree days 1 0  
Year to date cooling degree days 1 0  
Growing Degree Days 2 (Base 50)    
Moisture  
Dew Point 21 °F    
Average Humidity 32    
Maximum Humidity 45    
Minimum Humidity 18    
Precipitation  
Precipitation 0.00 in 0.05 in 1.81 in (2010)
Month to date precipitation 0.12 0.80  
Year to date precipitation 0.12 0.80  
Snow  
Snow 0.00 in - - ()
Month to date snowfall 0.0  
Since 1 July snowfall 0.0  
Snow Depth 0.00 in    
Sea Level Pressure  
Sea Level Pressure 30.30 in    
Wind  
Wind Speed 7 mph (NW)    
Max Wind Speed 16 mph    
Max Gust Speed 21 mph    
Visibility 10 miles    
Events      
T = Trace of Precipitation, MM = Missing Value Source: NWS Daily Summary

Daily Weather History Graph

Daily Weather History Graph

Search for Another Location

Airport:

Trip Planner

Search our weather history database for the weather conditions in past years. The results will help you decide how hot, cold, wet, or windy it might be!

Date:

Astronomy

Jan. 15, 2014 Rise Set
Actual Time 7:29 AM CST 5:57 PM CST
Civil Twilight 7:03 AM CST 6:23 PM CST
Nautical Twilight 6:34 AM CST 6:52 PM CST
Astronomical Twilight 6:05 AM CST 7:21 PM CST
Moon 5:51 PM CST (1/15) 6:50 AM CST (1/15)
Length of Visible Light 11h 19m
Length of Day
10h 27m
Full, 100% of the Moon is Illuminated
Jan 15
Full
Jan 15
Full
Jan 23
Last Quarter
Jan 30
New
Feb 6
First Quarter

Hourly Weather History & Observations

Time (CST) Temp. Windchill Dew Point Humidity Pressure Visibility Wind Dir Wind Speed Gust Speed Precip Events Conditions
12:51 AM 53.1 °F - 26.1 °F 35% 30.32 in 10.0 mi North 10.4 mph 19.6 mph N/A   Clear
1:51 AM 50.0 °F - 23.0 °F 35% 30.33 in 10.0 mi North 9.2 mph - N/A   Clear
2:51 AM 46.9 °F - 23.0 °F 39% 30.34 in 10.0 mi North 8.1 mph - N/A   Clear
3:51 AM 48.0 °F - 21.0 °F 34% 30.36 in 10.0 mi North 10.4 mph - N/A   Clear
4:51 AM 46.0 °F 41.0 °F 21.0 °F 37% 30.37 in 10.0 mi North 10.4 mph - N/A   Clear
5:51 AM 46.0 °F 41.0 °F 19.0 °F 34% 30.39 in 10.0 mi North 10.4 mph - N/A   Clear
6:51 AM 41.0 °F 36.4 °F 21.0 °F 45% 30.42 in 10.0 mi NNW 6.9 mph - N/A   Clear
7:51 AM 41.0 °F 35.8 °F 21.9 °F 47% 30.43 in 10.0 mi NNW 8.1 mph - N/A   Clear
8:51 AM 48.0 °F - 19.9 °F 33% 30.42 in 10.0 mi North 9.2 mph - N/A   Clear
9:51 AM 55.0 °F - 16.0 °F 22% 30.44 in 10.0 mi North 8.1 mph - N/A   Clear
10:51 AM 59.0 °F - 18.0 °F 20% 30.43 in 10.0 mi Variable 6.9 mph - N/A   Clear
11:51 AM 62.1 °F - 19.0 °F 19% 30.39 in 10.0 mi NNW 6.9 mph - N/A   Clear
12:51 PM 63.0 °F - 19.0 °F 18% 30.33 in 10.0 mi NNW 10.4 mph - N/A   Clear
1:51 PM 64.0 °F - 19.9 °F 18% 30.29 in 10.0 mi Calm Calm - N/A   Clear
2:51 PM 64.9 °F - 21.0 °F 19% 30.26 in 10.0 mi WSW 4.6 mph - N/A   Clear
3:51 PM 64.9 °F - 21.0 °F 19% 30.24 in 10.0 mi Variable 5.8 mph - N/A   Clear
4:51 PM 64.0 °F - 21.0 °F 19% 30.22 in 10.0 mi WSW 10.4 mph - N/A   Clear
5:51 PM 61.0 °F - 21.0 °F 21% 30.19 in 10.0 mi WSW 9.2 mph - N/A   Partly Cloudy
6:51 PM 59.0 °F - 21.0 °F 23% 30.20 in 10.0 mi SW 3.5 mph - N/A   Partly Cloudy
7:51 PM 57.0 °F - 21.0 °F 25% 30.19 in 10.0 mi South 4.6 mph - N/A   Partly Cloudy
8:51 PM 55.0 °F - 21.0 °F 27% 30.19 in 10.0 mi SSW 4.6 mph - N/A   Partly Cloudy
9:51 PM 53.1 °F - 19.9 °F 27% 30.17 in 10.0 mi SSW 6.9 mph - N/A   Partly Cloudy
10:51 PM 44.1 °F - 25.0 °F 47% 30.17 in 10.0 mi Calm Calm - N/A   Partly Cloudy
11:51 PM 41.0 °F 39.0 °F 28.0 °F 60% 30.15 in 10.0 mi SSW 3.5 mph - N/A   Partly Cloudy